Regional Weather Roundup
Issued by NWS Boston, MA

Current Version | Previous Version | Text Only | Print | Product List | Glossary On
Versions: 1 2 3 4 5 6 7 8 9 10 11 12 13 14 15 16 17 18 19 20 21 22 23 24 25 26 27 28 29 30 31 32 33 34 35 36 37 38 39 40 41 42 43 44 45 46 47 48 49 50
255 ASUS41 KBOX 191810 RWRBOX REGIONAL WEATHER ROUNDUP NATIONAL WEATHER SERVICE TAUNTON MA 100 PM EST MON FEB 19 2018 NOTE: "FAIR" INDICATES FEW OR NO CLOUDS BELOW 12,000 FEET WITH NO SIGNIFICANT WEATHER AND/OR OBSTRUCTIONS TO VISIBILITY. MAZALL-191900- EASTERN MASSACHUSETTS CITY SKY/WX TMP DP RH WIND PRES REMARKS BOSTON PTSUNNY 46 35 65 S17 30.42F 6HR MIN TEMP: 29; 6HR MAX TEMP: 47; BEVERLY FAIR 46 32 58 S17 30.42F LAWRENCE FAIR 48 30 49 S12G23 30.42F BEDFORD FAIR 45 30 55 SW14G26 30.40F BLUE HILL N/A 45 34 65 S23G38 30.38F NORWOOD FAIR 50 35 56 S16G26 30.42F MARSHFIELD FAIR 50 36 57 SW18G28 30.45F PLYMOUTH NOT AVBL TAUNTON CLOUDY 49 36 61 S13G20 30.46F NEW BEDFORD CLOUDY 47 37 68 S17G24 30.47F $$ MAZALL-191900- CAPE COD AND THE ISLANDS CITY SKY/WX TMP DP RH WIND PRES REMARKS FALMOUTH PTSUNNY 48 36 61 S17G25 30.48 HYANNIS PTSUNNY 45 37 73 SW12 30.47F CHATHAM CLOUDY 47 38 71 S9 30.51F PROVINCETOWN FAIR 45 35 68 S17G25 30.48F NANTUCKET FAIR 46 39 76 S14 30.50F MARTHAS VNYRD CLOUDY 46 37 71 S17G24 30.49F $$ MAZALL-191900- CENTRAL AND WESTERN MASSACHUSETTS CITY SKY/WX TMP DP RH WIND PRES REMARKS WORCESTER PTSUNNY 43 30 60 S17 30.39F 6HR MIN TEMP: 26; 6HR MAX TEMP: 43; FITCHBURG FAIR 48 30 49 S9 30.41F ORANGE FAIR 43 29 57 SW17G25 30.40F SPRINGFIELD PTSUNNY 46 31 55 SW23 30.39F WESTFIELD PTSUNNY 46 32 58 S13G25 30.38F NORTH ADAMS CLOUDY 44 28 53 SW9G16 30.34F PITTSFIELD CLOUDY 42 28 57 S9G21 30.33F $$ RIZALL-191900- RHODE ISLAND CITY SKY/WX TMP DP RH WIND PRES REMARKS PROVIDENCE PTSUNNY 48 39 71 S22 30.46F 6HR MIN TEMP: 25; 6HR MAX TEMP: 48; NEWPORT FAIR 46 39 76 S13 30.46F BLOCK ISLAND FAIR 48 40 73 S10 30.48F SMITHFIELD CLOUDY 47 33 58 SW12G21 30.44F WESTERLY FAIR 49 40 71 S12 30.47F $$ CTZALL-191900- CONNECTICUT CITY SKY/WX TMP DP RH WIND PRES REMARKS BRADLEY INTL PTSUNNY 45 33 63 S14G25 30.42F 6HR MIN TEMP: 18; 6HR MAX TEMP: 46; HARTFORD CLOUDY 48 36 63 S14G24 30.42F BRIDGEPORT CLOUDY 44 35 70 CALM 30.44F DANBURY CLOUDY N/A N/A N/A S10G17 30.42F GROTON PTSUNNY 47 39 74 S9 30.46F NEW HAVEN CLOUDY 46 35 65 S6 30.44F CHESTER PTSUNNY 50 37 62 S7G16 30.43F MERIDEN CLOUDY 46 35 65 S9 30.43F WILLIMANTIC CLOUDY 47 35 63 S10 30.44F OXFORD CLOUDY 43 34 70 S15 30.41F $$ MEZ002-015-021-024-NHZ003-005-008-011-012-014-VTZ005-008-191900- NORTHERN NEW ENGLAND CITY SKY/WX TMP DP RH WIND PRES REMARKS PORTLAND ME PTSUNNY 41 30 65 S13G29 30.41F 6HR MIN TEMP: 17; 6HR MAX TEMP: 41; BANGOR ME FAIR 41 30 65 S18 30.39F CONCORD NH FAIR 42 29 59 S10 30.37F MANCHESTER NH PTSUNNY 46 28 49 S12 30.39F NASHUA NH FAIR 46 29 51 VRB6 30.41F PORTSMOUTH NH PTSUNNY 42 29 60 S13 30.39F JAFFREY NH FAIR 43 26 51 S14G24 30.36F KEENE NH FAIR 45 28 51 S14G24 30.36F BURLINGTON VT PTSUNNY 43 26 51 S21G36 30.24F MT. WASHINGTON FOG 21 21 100 SW38 N/A VSB 1/16WCI 1 $$ NYZ052-076-191900- EASTERN NEW YORK CITY SKY/WX TMP DP RH WIND PRES REMARKS ALBANY CLOUDY 43 29 57 S15G26 30.33F 6HR MIN TEMP: 31; 6HR MAX TEMP: 43; NEW YORK CITY CLOUDY 48 37 65 S13G22 30.44F 6HR MIN TEMP: 39; 6HR MAX TEMP: 48; $$ ANZALL-191900- MARINE OBSERVATIONS STATION/POSITION TIME TEMP WIND PRES VSBY WAVE AIR SEA DIR/SP/G HT/PER (UTC) (F) (DEG/KT/KT) (MB) (MI) (FT/S) BOSTON BUOY 1750 44 39 170/ 16/ 19 1029.7F 4/ 9 BUZZARDS BAY 1700 41 170/ 15/ 16 1033.1F NANTUCKET SOUND 1650 41 38 170/ 14/ 16 1033.2 1/ 3 MASS BAY-STELLWA 1704 40 39 1030.9F 5/ 8 ISLE OF SHOALS 1800 40 150/ 19/ 21 1029.7F S OF BLOCK IS NOT AVBL $$ ......................KEY......................... SKY/WX - SKY CONDITION/PRESENT WEATHER TMP - TEMPERATURE IN FAHRENHEIT DWPT - DEWPOINT IN FAHRENHEIT RH - RELATIVE HUMIDITY IN PERCENT WIND - DIRECTION AND SPEED IN MPH PRES - MEAN SEA LEVEL PRESSURE IN INCHES OF HG WCI - WIND CHILL INDEX VSB - VISIBILITY IN MILES HX - HEAT INDEX TC - TEMPERATURE IN CELSIUS VRB - VARIABLE WIND DIRECTION N/A - NOT AVAILABLE

USA.gov is the U.S. government's official web portal to all federal, state and local government web resources and services.